FW0960 Weather Reports


Display with metric or nautical units.
time (UTC)temp
F
wind
direction
speed
MPH
gust
MPH
rain 1hr
in
rain 24hr
in
rain mn
in
humidity
%
barometer
mb
20260503002110 56 200 0.0 2.0 0.00 0.00 0.00 63 1011.7
20260503001605 56 200 0.0 2.0 0.00 0.00 0.00 63 1011.7
20260503000040 56 200 0.0 1.0 0.00 0.00 0.00 61 1011.7
20260502235532 56 198 0.0 1.0 0.00 0.00 0.00 61 1011.7
20260502235033 56 198 1.0 1.0 0.00 0.00 0.00 60 1011.6
20260502234532 56 198 1.0 2.0 0.00 0.00 0.00 60 1011.6
20260502234030 56 198 1.0 2.0 0.00 0.00 0.00 61 1011.3
20260502233032 57 206 1.0 2.0 0.00 0.00 0.00 59 1011.0
20260502232534 57 205 1.0 2.0 0.00 0.00 0.00 59 1011.3
20260502232030 57 205 1.0 2.0 0.00 0.00 0.00 58 1011.4
20260502231534 57 199 1.0 2.0 0.00 0.00 0.00 59 1011.4
20260502231037 57 200 1.0 2.0 0.00 0.00 0.00 58 1011.4
20260502230030 57 208 1.0 2.0 0.00 0.00 0.00 57 1011.5
20260502225532 57 204 1.0 2.0 0.00 0.00 0.00 57 1011.7
20260502225032 57 204 1.0 3.0 0.00 0.00 0.00 58 1011.5
20260502224531 57 202 1.0 3.0 0.00 0.00 0.00 57 1011.5
20260502224030 57 204 1.0 2.0 0.00 0.00 0.00 59 1011.6
20260502223530 57 202 1.0 2.0 0.00 0.00 0.00 57 1011.7
20260502223034 57 198 1.0 2.0 0.00 0.00 0.00 56 1011.6
20260502222521 57 201 1.0 2.0 0.00 0.00 0.00 57 1011.6
20260502221516 57 203 0.0 1.0 0.00 0.00 0.00 58 1011.4
20260502221019 57 205 1.0 1.0 0.00 0.00 0.00 58 1011.6
20260502220525 56 201 1.0 2.0 0.00 0.00 0.00 60 1011.6
20260502215515 56 200 1.0 2.0 0.00 0.00 0.00 62 1011.7
20260502215011 56 200 1.0 2.0 0.00 0.00 0.00 59 1011.6
20260502214013 56 188 1.0 4.0 0.00 0.00 0.00 59 1011.7
20260502213511 56 210 1.0 4.0 0.00 0.00 0.00 57 1011.6
20260502213013 56 198 1.0 1.0 0.00 0.00 0.00 59 1011.8
20260502212511 56 197 1.0 2.0 0.00 0.00 0.00 59 1011.6
20260502212013 56 200 1.0 2.0 0.00 0.00 0.00 58 1011.7
20260502211511 56 198 1.0 4.0 0.00 0.00 0.00 58 1011.8
20260502211012 56 205 1.0 4.0 0.00 0.00 0.00 56 1011.6
20260502210510 56 213 1.0 3.0 0.00 0.00 0.00 60 1011.6
20260502210006 56 207 1.0 3.0 0.00 0.00 0.00 60 1011.4
20260502205503 56 216 1.0 4.0 0.00 0.00 0.00 62 1011.4
20260502204503 56 199 1.0 5.0 0.00 0.00 0.00 59 1011.2
20260502204008 56 207 1.0 5.0 0.00 0.00 0.00 59 1011.3
20260502203503 56 194 1.0 4.0 0.00 0.00 0.00 57 1011.5
20260502203006 56 180 1.0 4.0 0.00 0.00 0.00 61 1011.5
20260502202504 56 174 1.0 6.0 0.00 0.00 0.00 63 1011.3
20260502202003 56 173 1.0 6.0 0.00 0.00 0.00 63 1011.2
20260502201502 56 201 1.0 5.0 0.00 0.00 0.00 65 1011.4
20260502200502 56 215 1.0 5.0 0.00 0.00 0.00 66 1011.4
20260502200007 56 208 1.0 5.0 0.00 0.00 0.00 65 1011.6
20260502195503 56 178 1.0 6.0 0.00 0.00 0.00 66 1011.4
20260502195025 56 217 1.0 6.0 0.00 0.00 0.00 66 1011.5
20260502194001 56 219 1.0 6.0 0.00 0.00 0.00 68 1011.5
20260502193503 56 197 1.0 6.0 0.00 0.00 0.00 70 1011.7
20260502193003 56 242 1.0 4.0 0.00 0.00 0.00 69 1011.9
20260502192506 56 198 1.0 4.0 0.00 0.00 0.00 71 1012.1
20260502192006 56 198 1.0 4.0 0.00 0.00 0.00 71 1012.2
20260502191501 56 209 1.0 4.0 0.00 0.00 0.00 71 1012.2
20260502191005 56 209 1.0 4.0 0.00 0.00 0.00 73 1012.1
20260502190506 56 202 1.0 4.0 0.00 0.00 0.00 73 1012.1
20260502190008 55 202 1.0 4.0 0.00 0.00 0.00 73 1012.2
20260502185503 55 214 1.0 4.0 0.00 0.00 0.00 74 1012.5
20260502185007 55 211 1.0 5.0 0.00 0.00 0.00 73 1012.6
20260502184502 55 235 1.0 5.0 0.00 0.00 0.00 73 1012.8
20260502184001 55 190 1.0 5.0 0.00 0.00 0.00 74 1012.7
20260502183501 55 193 1.0 4.0 0.00 0.00 0.00 73 1012.8
20260502183008 55 186 1.0 4.0 0.00 0.00 0.00 74 1012.7
20260502182505 55 186 1.0 5.0 0.00 0.00 0.00 74 1012.8
20260502182007 55 188 1.0 5.0 0.00 0.00 0.00 74 1013.0
20260502181005 56 205 1.0 6.0 0.00 0.00 0.00 75 1013.0
20260502180503 56 188 1.0 6.0 0.00 0.00 0.00 74 1013.1
20260502170452 55 215 1.0 4.0 0.00 0.00 0.00 74 1012.9
20260502163444 53 225 1.0 3.0 0.00 0.00 0.00 76 1013.5
20260502162943 53 199 1.0 3.0 0.00 0.00 0.00 78 1013.3
20260502162446 52 196 1.0 3.0 0.00 0.00 0.00 80 1013.5
20260502161943 52 194 1.0 4.0 0.00 0.00 0.00 81 1013.4
20260502160943 52 205 1.0 4.0 0.00 0.00 0.00 80 1013.5
20260502160441 51 217 1.0 4.0 0.00 0.00 0.00 82 1013.6
20260502151940 53 208 1.0 3.0 0.00 0.00 0.00 74 1013.7
20260502151436 53 190 1.0 3.0 0.00 0.00 0.00 74 1013.7
20260502150441 53 192 1.0 3.0 0.00 0.00 0.00 75 1013.7
20260502130434 53 205 1.0 9.0 0.00 0.00 0.00 80 1013.8
20260502122926 52 207 1.0 3.0 0.00 0.00 0.00 83 1013.7
20260502122434 52 184 1.0 2.0 0.00 0.00 0.00 85 1013.7
20260502121922 52 170 0.0 2.0 0.00 0.00 0.00 86 1013.6
20260502121421 52 104 0.0 0.0 0.00 0.00 0.00 86 1013.7
20260502120418 51 90 0.0 0.0 0.00 0.00 0.00 88 1013.9
20260502115918 51 90 0.0 0.0 0.00 0.00 0.00 88 1014.0
20260502115415 51 90 0.0 0.0 0.00 0.00 0.00 88 1014.0
20260502114920 51 90 0.0 0.0 0.00 0.00 0.00 89 1013.9
20260502113907 50 90 0.0 0.0 0.00 0.00 0.00 89 1013.7
20260502113411 50 79 0.0 0.0 0.00 0.00 0.00 89 1013.7
20260502112901 50 79 0.0 0.0 0.00 0.00 0.00 89 1013.8
20260502112409 50 79 0.0 0.0 0.00 0.00 0.00 89 1013.8
20260502111353 50 79 0.0 0.0 0.00 0.00 0.00 90 1013.6
20260502110851 50 79 0.0 0.0 0.00 0.00 0.00 90 1013.6
20260502105832 49 79 0.0 0.0 0.00 0.00 0.00 91 1013.4
20260502105330 49 79 0.0 0.0 0.00 0.00 0.00 91 1013.4
20260502104316 49 79 0.0 0.0 0.00 0.00 0.00 91 1013.3
20260502103813 49 79 0.0 0.0 0.00 0.00 0.00 90 1013.3
20260502103311 49 79 0.0 0.0 0.00 0.00 0.00 90 1013.4
20260502102811 49 79 0.0 0.0 0.00 0.00 0.00 90 1013.2
20260502101803 49 79 0.0 0.0 0.00 0.00 0.00 90 1013.1
20260502100802 49 79 0.0 0.0 0.00 0.00 0.00 90 1013.0
20260502100303 49 79 0.0 0.0 0.00 0.00 0.00 90 1013.1
20260502091307 49 79 0.0 0.0 0.00 0.00 0.00 88 1012.7
20260502090807 49 79 0.0 0.0 0.00 0.00 0.00 88 1012.8
20260502071209 51 79 0.0 0.0 0.00 0.00 0.00 84 1012.9
20260502070706 51 79 0.0 0.0 0.00 0.00 0.00 85 1013.0
20260502070202 51 79 0.0 0.0 0.00 0.00 0.00 84 1013.0
20260502065706 52 79 0.0 0.0 0.00 0.00 0.00 84 1012.8
20260502065205 52 79 0.0 0.0 0.00 0.00 0.00 84 1012.8
20260502064152 52 79 0.0 0.0 0.00 0.00 0.00 84 1013.0
20260502063647 52 79 0.0 0.0 0.00 0.00 0.00 85 1013.2
20260502063148 52 79 0.0 0.0 0.00 0.00 0.00 85 1013.2
20260502062648 52 79 0.0 0.0 0.00 0.00 0.00 85 1013.2
20260502062139 52 79 0.0 0.0 0.00 0.00 0.00 85 1013.3
20260502061639 52 79 0.0 0.0 0.00 0.00 0.00 85 1013.2
20260502060642 52 79 0.0 0.0 0.00 0.00 0.00 86 1013.4
20260502060138 52 79 0.0 0.0 0.00 0.00 0.00 86 1013.4
20260502055638 52 79 0.0 0.0 0.00 0.00 0.00 86 1013.5
20260502055134 52 79 0.0 0.0 0.00 0.00 0.00 86 1013.6
20260502054138 52 79 0.0 0.0 0.00 0.00 0.00 85 1013.8
20260502053639 52 79 0.0 0.0 0.00 0.00 0.00 85 1013.8
20260502053137 52 79 0.0 0.0 0.00 0.00 0.00 85 1013.8
20260502052639 52 79 0.0 0.0 0.00 0.00 0.00 85 1013.9
20260502052139 52 79 0.0 0.0 0.00 0.00 0.00 84 1014.0
20260502051130 52 79 0.0 0.0 0.00 0.00 0.00 83 1014.0
20260502050132 52 79 0.0 0.0 0.00 0.00 0.00 82 1014.1
20260502045630 52 79 0.0 0.0 0.00 0.00 0.00 82 1014.1
20260502045132 52 79 0.0 0.0 0.00 0.00 0.00 81 1014.1
20260502044632 52 79 0.0 0.0 0.00 0.00 0.00 82 1014.0
20260502044132 52 79 0.0 0.0 0.00 0.00 0.00 82 1014.1
20260502043628 52 79 0.0 0.0 0.00 0.00 0.00 82 1014.1
20260502043130 52 79 0.0 0.0 0.00 0.00 0.00 82 1014.1
20260502042632 52 79 0.0 0.0 0.00 0.00 0.00 82 1014.1
20260502042131 52 79 0.0 0.0 0.00 0.00 0.00 82 1014.0
20260502041628 52 79 0.0 0.0 0.00 0.00 0.00 83 1014.1
20260502041129 52 79 0.0 0.0 0.00 0.00 0.00 83 1013.9
20260502040632 52 79 0.0 0.0 0.00 0.00 0.00 83 1014.0
20260502040143 52 79 0.0 0.0 0.00 0.00 0.00 83 1014.0
20260502035132 52 79 0.0 0.0 0.00 0.00 0.00 83 1014.1
20260502034629 52 79 0.0 0.0 0.00 0.00 0.00 83 1013.9
20260502034140 52 79 0.0 0.0 0.00 0.00 0.00 83 1014.0
20260502033627 52 79 0.0 0.0 0.00 0.00 0.00 83 1013.8
20260502033123 52 79 0.0 0.0 0.00 0.00 0.00 83 1013.7
20260502032624 52 79 0.0 0.0 0.00 0.00 0.00 83 1013.8
20260502031624 52 79 0.0 0.0 0.00 0.00 0.00 84 1013.6
20260502031122 52 79 0.0 0.0 0.00 0.00 0.00 85 1013.8
20260502030616 52 79 0.0 0.0 0.00 0.00 0.00 85 1013.7
20260502030125 52 79 0.0 0.0 0.00 0.00 0.00 85 1013.8
20260502025152 52 79 0.0 0.0 0.00 0.00 0.00 85 1013.9
20260502024106 52 79 0.0 0.0 0.00 0.00 0.00 85 1014.1
20260502023606 52 79 0.0 0.0 0.00 0.00 0.00 85 1014.1
20260502023106 52 79 0.0 0.0 0.00 0.00 0.00 85 1014.3
20260502022603 52 79 0.0 0.0 0.00 0.00 0.00 85 1014.2
20260502021603 52 79 0.0 0.0 0.00 0.00 0.00 85 1014.4
20260502021104 53 79 0.0 0.0 0.00 0.00 0.00 84 1014.5
20260502020601 53 79 0.0 0.0 0.00 0.00 0.00 84 1014.5
20260502015602 53 79 0.0 0.0 0.00 0.00 0.00 84 1014.4
20260502015102 53 79 0.0 0.0 0.00 0.00 0.00 83 1014.3
20260502014603 53 79 0.0 0.0 0.00 0.00 0.00 83 1014.4
20260502014109 53 79 0.0 0.0 0.00 0.00 0.00 83 1014.4
20260502013102 54 79 0.0 0.0 0.00 0.00 0.00 81 1014.1
20260502012605 54 79 0.0 0.0 0.00 0.00 0.00 81 1014.0
20260502012106 54 79 0.0 0.0 0.00 0.00 0.00 80 1014.1
20260502011604 54 79 0.0 0.0 0.00 0.00 0.00 80 1014.0
20260502011103 54 79 0.0 0.0 0.00 0.00 0.00 80 1014.1
20260502005608 55 79 0.0 0.0 0.00 0.00 0.00 78 1014.1
20260502005102 55 79 0.0 0.0 0.00 0.00 0.00 77 1014.0
20260502004603 55 79 0.0 0.0 0.00 0.00 0.00 76 1014.0
20260502004105 55 79 0.0 0.0 0.00 0.00 0.00 76 1013.9
20260502003605 55 79 0.0 0.0 0.00 0.00 0.00 75 1013.8
20260502003105 56 79 0.0 0.0 0.00 0.00 0.00 75 1013.7
20260502002604 56 78 0.0 1.0 0.00 0.00 0.00 74 1013.7